Regional Weather Roundup
Issued by NWS Charleston, SC

Current Version | Previous Version | Graphics & Text | Print | Product List | Glossary On
Versions: 1 2 3 4 5 6 7 8 9 10 11 12 13 14 15 16 17 18 19 20 21 22 23 24 25 26 27 28 29 30 31 32 33 34 35 36 37 38 39 40 41 42 43 44 45 46 47 48 49 50
000
ASUS42 KCHS 181512
RWRCHS

REGIONAL WEATHER ROUNDUP
NATIONAL WEATHER SERVICE CHARLESTON SC
1100 AM EDT FRI AUG 18 2017

NOTE: "FAIR" INDICATES FEW OR NO CLOUDS BELOW 12,000 FEET WITH NO
SIGNIFICANT WEATHER AND/OR OBSTRUCTIONS TO VISIBILITY.

NOT ALL STATIONS ARE QUALITY CONTROLLED. USE DATA WITH CAUTION...
ESPECIALLY DEWPOINT OBSERVATIONS.

SCZ027-030-031-034>040-042>050-181600-
...SOUTHEAST SOUTH CAROLINA...

CITY           SKY/WX    TMP DP  RH WIND       PRES   REMARKS
N CHARLESTON   MOSUNNY   90  76  63 NW8       29.99S HX 101
WATERFRONT PRK   N/A     88  78  72 NW7       29.84S HX 101
JOHNS ISLAND   FAIR      91  77  62 NW7       30.00S HX 105
PINOPOLIS        N/A     84  79  84 NW6       29.92S HX  96
MONCKS CORNER  FAIR      88  75  66 W3        29.99S HX  97
SUMMERVILLE    FAIR      88  75  66 CALM      30.00S HX  97
BEAUFORT MCAS  SUNNY     91  77  63 NW8       30.00F HX 104
BEAUFORT ARPT  FAIR      88  75  66 NW7       30.00S HX  97
HILTON HEAD IS SUNNY     90  75  62 N12       30.01  HX 100
WALTERBORO     SUNNY     88  73  62 CALM      30.00S HX  96
ALLENDALE      NOT AVBL

...SOUTHERN MIDLANDS AND PEE DEE...

CITY           SKY/WX    TMP DP  RH WIND       PRES   REMARKS
GEORGETOWN     FAIR      88  79  74 W8        29.99S HX 102
KINGSTREE      FAIR      88  77  70 SW6       29.97F HX 100
ORANGEBURG     SUNNY     90  72  55 W8        29.98F HX  97
BARNWELL       FAIR      91  75  59 NW7       29.99S HX 102
AIKEN          FAIR      88  73  62 W9        30.02F HX  96
MANNING        FAIR      88  73  62 CALM      29.98F HX  96
COLUMBIA       MOSUNNY   92  72  51 W10       29.95F HX  99
SUMTER         SUNNY     90  72  55 SW9       29.94S HX  97
FLORENCE       SUNNY     89  76  65 W8        29.96S HX 100
MYRTLE BEACH   SUNNY     90  77  66 W9        29.98F HX 102
N MYRTLE BEACH SUNNY     89  77  67 VRB6      29.97F HX 101

$$

GAZ063-065-086>088-099>101-113>116-118-119-134>141-150-181600-
...SOUTHEAST GEORGIA...

CITY           SKY/WX    TMP DP  RH WIND       PRES   REMARKS
SAVANNAH ARPT  MOSUNNY   91  75  59 VRB5      30.00F HX 101
HUNTER AAF     SUNNY     90  76  62 NW6       29.99S HX 101
FORT STEWART   SUNNY     91  73  56 N8        29.99S HX  99
STATESBORO     SUNNY     90  67  47 NW8       30.01S HX  93
SYLVANIA       SUNNY     90  76  65 NW5       30.01S HX 101
CLAXTON        FAIR      90  74  59 W7        30.01S HX 100

...CSRA...CENTRAL AND FAR SOUTHEAST GEORGIA...

CITY           SKY/WX    TMP DP  RH WIND       PRES   REMARKS
THOMSON        SUNNY     87  74  63 NW9       30.04F HX  95
AUGUSTA-BUSH   SUNNY     92  74  55 W12       29.97F HX 101
AUGUSTA-DANIEL SUNNY     90  71  53 W9        30.00S HX  96
SWAINSBORO     FAIR      88  73  62 NW9       30.02S HX  96
VIDALIA        SUNNY     90  73  58 W6        30.02S HX  98
EASTMAN        FAIR      90  62  38 NW9       30.04S HX  90
HAZLEHURST     FAIR      92  60  34 NW3       30.01S HX  91
ALMA           SUNNY     91  71  51 NW10      30.02S HX  97
WAYCROSS       SUNNY     90  72  55 N7        30.02S HX  96
JESUP          NOT AVBL
BAXLEY         FAIR      88  70  55 N7        30.02S HX  92
BRUNSWICK      MOSUNNY   90  73  58 N6        30.02F HX  98
SAINT SIMONS   CLOUDY    86  78  77 SE6       30.02R HX  98

$$

SCZ027-028-034-036>038-045-046-048>050-GAZ119-141-181600-
...LAKE AND SUPPLEMENTAL COASTAL OBSERVATIONS...

STATION/POSITION TIME  TEMP    WIND        PRES    WAVE   SWELL
                       AIR SEA DIR/SP/G            HT/PER HT/PER/DIR
                 (UTC) (F)     (DEG/KT/KT) (MB)    (FT/S) (FT/S/D)
WINYAH BAY       1345   85     280/  8     1015.0
LAKE MURRAY      1420   86     260/ 10/ 13 1013.5
ACE BASIN NERRS  1345   86     270/  3     1016.0
FORT PULASKI     1448   86 86  290/  6/  8 1016.4S
SAPELO ISLAND    1400   88     330/  5     1016.0

$$

ANZ835-935-AMZ111-154-330-350-352-354-370-450-454-472-181600-
...C-MAN AND BUOY OBSERVATIONS...

STATION/POSITION TIME  TEMP    WIND        PRES    WAVE   SWELL
                       AIR SEA DIR/SP/G            HT/PER HT/PER/DIR
                 (UTC) (F)     (DEG/KT/KT) (MB)    (FT/S) (FT/S/D)
BUOY 41004       1450   84 85  230/ 12/ 14 1016.0R   3/ 5   2/160/ 8
BUOY 41008       1350   83 85  250/  2/  4 1016.3    1/ 4   2/150/ 4
FOLLY BEACH CMAN 1400   85     260/  4/  6 1016.4R
CAPERS NEARSHORE 1408   84 85  280/  6/ 10 1015.7R
FRIPP NEARSHORE  1408   86     310/  8/ 10 1015.7R


STATION/POSITION TIME  TEMP    WIND        PRES    WAVE   SWELL
                       AIR SEA DIR/SP/G            HT/PER HT/PER/DIR
                 (UTC) (F)     (DEG/KT/KT) (MB)    (FT/S) (FT/S/D)
5E ST. MARYS GA  1430      84                N/A     1/ 8
FRYING PAN BUOY  1450   84 84  220/ 12/ 14 1015.6R   3/ 5   2/140/ 8
BUOY 41025       1450   84 86  220/ 12/ 16 1014.9R   2/ 8   2/ 70/ 8
CAPE LOOKOUT NC  1400   85     210/  9/ 12 1014.4S
BUOY 41002       1450   84 84  230/ 10/ 10 1017.5R   2/ 4   2/110/ 8
BUOY 41010       1450   85 85  220/  6/  6 1017.9R   2/ 8   2/120/ 8
ST AUGUSTINE FL  1500   82 82  130/  7/  8 1017.5R


$$



USA.gov is the U.S. government's official web portal to all federal, state and local government web resources and services.